SCP
0 0 0 0 0 0 0 0 0 0 0 0 0 0 0 0 0 0 0 0 0 0 0 0 0 0 0 0 0 0 0 0 0 0 0 0 0 0 0 0 0 0 0 0
0 0 0 0 0 0 0 0 0 0 0 0 0 0 0 0 0 0 0 0 0 0 0 0 0 0 0 0 0 0 0 0 0 0 0 0 0 0 0 0 0 0 0 0
0 0 0 0 0 0 0 0 0 0 0 0 0 0 0 0 0 0 0 0 0 0 0 0 0 0 0 0 0 0 0 0 0 0 0 0 0 0 0 0 0 0 0 0
0 0 0 0 0 0 0 0 0 0 0 0 0 0 0 0 0 0 0 0 0 0 0 0 0 0 0 0 0 0 0 0 0 0 0 0 0 0 0 0 0 0 0 0
0 0 0 0 0 0 0 0 0 0 0 0 0 0 0 0 0 0 0 0 0 0 0 0 0 0 0 0 0 0 0 0 0 0 0 0 0 0 0 0 0 0 0 0
0 0 0 0 0 0 0 0 0 0 0 0 0 0 0 0 0 0 0 0 0 0 0 0 0 0 0 0 0 0 0 0 0 0 0 0 0 0 0 0 0 0 0 0
0 0 0 0 0 0 0 0 0 0 0 0 0 0 0 0 0 0 0 0 0 0 0 0 0 0 0 0 0 0 0 0 0 0 0 0 0 0 0 0 0 0 0 0
0 0 0 0 0 0 0 0 0 0 0 0 0 0 0 0 0 0 0 0 0 0 0 0 0 0 0 0 0 0 0 0 0 0 0 0 0 0 0 0 0 0 0 0
0 0 0 0 0 0 0 0 0 0 0 0 0 0 0 0 0 0 0 0 0 0 0 0 0 0 0 0 0 0 0 0 0 0 0 0 0 0 0 0 0 0 0 0
0 0 0 0 0 0 0 0 0 0 0 0 0 0 0 0 0 0 0 0 0 0 0 0 0 0 0 0 0 0 0 0 0 0 0 0 0 0 0 0 0 0 0 0
-0 0 0 0 0 0 0 0 0 0 0 0 0 0 0 0 0 0 0 0 0 0 0 0 0 0 0 0 0 0 0 0 0 0 0 0 0 0 0 0 0 0 0 0
-0 -0 0 0 0 0 0 0 0 0 0 0 0 0 0 0 0 0 0 0 0 0 0 0 0 0 0 0 0 0 0 0 0 0 0 0 0 0 0 0 0 0 0 0
0 0 0 0 0 0 0 0 0 0 0 0 0 0 0 0 0 0 0 0 0 0 0 0 0 0 0 0 0 0 0 0 0 0 0 0 0 0 0 0 0 0 0 0
0 0 0 0 0 0 0 0 0 0 0 0 0 0 0 0 0 0 0 0 0 0 0 0 0 0 0 0 0 0 0 0 0 0 0 0 0 0 0 0 0 0 0 0
0 0 0 0 0 0 0 0 0 0 0 0 0 0 0 0 0 0 0 0 0 0 0 0 0 0 0 0 0 0 0 0 0 0 0 0 0 0 0 0 0 0 0 0
0 0 0 0 0 0 0 0 0 0 0 0 0 0 0 0 0 0 0 0 0 0 0 0 0 0 0 0 0 0 0 0 0 0 0 0 0 0 0 0 0 0 0 0
0 0 0 0 0 0 0 0 0 0 0 0 0 0 0 0 0 0 0 0 0 0 0 0 0 0 0 0 0 0 0 0 0 0 0 0 0 0 0 0 0 0 0 0
0 0 0 0 0 0 0 0 0 0 0 0 0 0 0 0 0 0 0 0 0 0 0 0 0 0 0 0 0 0 0 0 0 0 0 0 0 0 0 0 0 0 0 0
0 0 0 0 0 0 0 0 0 0 0 0 0 0 0 0 0 0 0 0 0 0 0 0 0 0 0 0 0 0 0 0 0 0 0 0 0 0 0 0 0 0 0 0
0 0 0 0 0 0 0 0 0 0 0 0 0 0 0 0 0 0 0 0 0 0 0 0 0 0 0 0 0 0 0 0 0 0 0 0 0 0 0 0 0 0 0 0
0 0 0 0 0 0 0 0 0 0 0 0 0 0 0 0 0 0 0 0 0 0 0 0 0 0 0 0 0 0 0 0 0 0 0 0 0 0 0 0 0 0 0 0
0 0 0 0 0 0 0 0 -0 0 0 0 0 0 0 0 0 0 0 0 0 0 0 0 0 0 0 0 0 0 0 0 0 0 0 0 -0 0 0 0 0 0 0 0
0 0 0 0 0 0 0 0 0 0 0 0 0 0 0 0 0 0 0 0 0 0 0 0 0 0 0 0 0 0 0 0 0 0 0 0 0 0 0 0 0 0 0 0
0 0 0 0 0 0 0 0 0 0 0 0 -0 -0 0 0 0 0 0 0 0 0 0 0 0 0 0 0 0 0 0 0 0 0 0 0 0 0 0 0 0 0 0 0
-0 -0 0 0 0 0 0 0 0 0 0 -0 -0 -0 0 0 0 0 0 0 0 0 0 0 0 0 0 0 0 0 0 0 0 0 0 0 0 0 0 0 0 0 0 0
-0 -0 -0 0 0 0 0 0 0 0 0 -0 -0 -0 -0 0 0 0 0 0 0 0 0 0 0 0 0 0 -0 -0 0 0 0 0 0 0 0 0 0 0 0 0 0 0
Wind_Speed
0 2 3 7 7 6 3 3 4 6 4 3 4 5 4 3 4 6 6 7 8 8 7 6 6 7 7 6 6 6 5 4 4 3 2 2 1 1 1 1 2 2 3 3
2 3 8 6 4 3 3 3 4 5 3 2 2 4 4 4 6 9 10 9 9 7 5 5 6 7 7 7 7 6 6 5 4 3 2 2 2 1 1 1 2 2 2 3
5 7 4 2 2 3 4 4 4 4 2 2 1 4 4 3 3 4 6 7 8 9 9 8 7 7 7 7 8 7 6 5 4 4 3 2 2 2 1 1 0 0 1 2
4 5 2 2 3 3 4 4 3 1 1 3 1 2 6 4 2 4 5 6 7 7 7 8 8 7 8 7 7 7 6 5 4 5 4 4 3 2 2 2 1 0 1 2
4 3 2 3 5 4 5 3 2 1 1 2 1 2 7 1 4 6 6 7 7 8 9 9 10 9 8 7 7 6 6 5 5 5 5 5 3 2 1 1 1 0 0 0
5 3 3 4 4 2 1 4 5 4 4 2 4 4 6 4 7 6 6 7 7 7 8 8 7 7 5 6 6 6 6 5 4 5 5 5 5 4 3 2 2 1 0 0
5 4 3 2 0 2 4 6 4 5 3 5 2 2 7 6 5 7 8 7 7 8 8 7 7 7 7 7 7 6 7 5 5 5 5 5 5 5 5 4 3 2 1 1
2 5 4 3 4 3 2 7 5 3 3 4 3 2 5 4 2 4 6 6 6 7 8 9 9 9 8 8 8 7 7 6 6 6 5 4 5 4 3 4 3 3 3 3
3 5 4 4 3 6 3 3 6 5 1 2 3 3 5 2 2 2 3 4 5 7 8 9 9 9 8 8 8 9 8 6 6 6 5 4 4 4 4 3 3 3 2 2
5 3 5 3 1 0 4 5 4 3 1 2 4 3 4 3 2 2 3 4 4 5 6 7 8 8 8 8 7 7 7 7 7 6 6 5 5 5 4 3 3 3 3 3
4 3 4 2 2 4 1 1 3 3 4 4 3 6 5 6 6 5 5 5 5 6 7 7 7 7 7 6 6 6 6 6 6 6 5 5 4 4 4 3 4 3 3 3
3 4 2 5 5 3 4 4 5 4 3 3 3 8 6 4 4 5 5 5 5 6 6 6 6 5 5 6 6 6 6 6 6 6 5 5 4 4 4 4 3 3 3 3
3 5 1 5 6 4 1 1 3 4 3 3 3 7 4 1 2 3 4 4 4 4 4 4 4 5 5 5 5 6 6 6 6 6 5 5 4 5 5 4 4 3 3 3
5 4 6 6 6 3 3 3 1 4 3 3 6 7 6 3 3 3 3 3 4 4 5 4 4 4 4 5 5 5 5 5 5 5 6 6 6 6 6 5 4 4 3 3
4 3 3 5 4 2 4 5 4 4 6 7 7 7 8 6 6 5 3 3 3 4 4 5 4 4 4 4 4 4 4 5 5 6 6 6 5 5 5 4 4 4 3 3
3 3 1 2 2 2 3 4 4 4 5 6 5 7 7 4 2 2 3 4 4 4 5 4 4 4 4 4 4 3 4 4 5 6 6 5 5 4 4 4 4 4 3 3
1 3 2 3 3 3 4 4 3 3 3 3 5 7 4 1 2 4 4 4 4 4 4 4 4 4 4 4 4 4 4 3 4 4 4 5 5 5 4 4 4 4 4 3
5 4 3 1 1 4 7 4 2 2 1 1 1 3 2 3 2 2 3 5 4 3 3 3 3 3 3 3 3 3 2 3 4 3 3 4 4 5 4 4 4 4 3 3
6 6 4 3 2 5 6 4 2 2 2 3 1 2 3 2 3 3 1 2 4 4 4 4 4 3 2 3 3 3 3 3 3 3 3 4 4 4 4 4 4 4 3 3
2 4 4 3 3 5 6 6 4 2 2 4 1 0 1 3 2 4 4 1 1 1 2 2 2 2 2 2 3 4 3 3 3 3 3 3 4 4 4 5 4 3 3 4
1 2 3 4 4 6 5 5 3 2 5 5 2 1 2 3 5 5 3 1 1 1 1 1 2 2 3 3 3 3 3 3 4 3 2 2 3 4 4 4 3 3 3 3
4 3 3 3 4 6 3 2 2 4 3 2 1 1 1 2 2 1 1 1 0 0 0 1 2 2 2 3 4 3 3 4 2 2 2 2 3 3 3 3 3 3 3 3
4 5 5 6 6 4 1 2 2 2 1 1 1 2 1 1 2 2 2 1 1 1 1 1 2 2 2 2 4 5 4 3 3 2 2 2 2 2 2 3 3 2 3 3
4 0 2 2 4 3 2 1 1 0 1 2 1 1 0 2 2 2 2 2 2 2 2 1 2 2 2 3 3 4 4 3 3 3 2 2 1 1 1 2 3 3 3 4
4 1 1 3 4 3 2 2 3 3 2 2 2 2 2 2 2 3 2 3 3 3 2 2 3 3 4 3 3 3 3 4 4 3 2 2 2 2 1 1 2 3 4 5
4 4 4 5 4 3 6 6 4 3 3 3 3 3 2 3 3 3 3 4 4 3 3 2 3 3 3 3 3 3 4 4 5 3 3 2 2 2 1 1 1 1 3 4
Wind_Direction
337 92 221 228 213 210 209 212 256 258 244 189 229 245 247 223 183 184 190 189 191 198 202 182 170 157 151 147 143 143 140 143 133 123 121 124 122 102 64 84 100 102 115 120
32 248 237 228 228 216 224 234 267 281 264 188 243 267 248 218 201 194 191 193 194 189 183 177 164 159 161 159 161 155 154 156 154 153 158 154 149 149 134 81 84 98 115 126
204 241 244 228 247 243 253 226 236 249 315 358 89 319 289 271 219 200 197 192 187 183 182 179 170 172 166 163 165 163 162 157 157 148 119 96 74 57 50 49 63 150 131 128
245 251 238 225 248 238 258 248 230 230 71 285 153 271 280 248 234 209 200 188 184 180 177 175 172 174 173 173 165 159 161 157 154 145 139 141 145 169 200 195 197 212 129 129
264 264 239 234 236 219 237 251 247 238 159 302 271 184 281 245 219 222 209 195 187 182 177 176 178 181 176 166 162 161 161 159 157 153 154 149 149 174 175 159 152 144 353 133
247 250 224 225 238 218 200 31 20 40 74 299 246 171 268 231 211 208 202 197 186 179 180 180 177 169 164 159 155 156 158 165 164 156 155 155 158 159 148 158 174 183 191 253
308 292 263 217 285 347 78 74 23 358 8 263 266 170 248 247 219 193 187 192 187 177 174 172 168 169 169 164 165 165 163 171 173 167 170 172 172 169 171 175 181 180 186 214
282 286 255 213 184 196 181 138 153 208 240 283 332 240 260 271 228 184 174 173 173 179 177 176 177 176 176 174 172 171 174 178 178 176 182 180 175 171 178 183 180 187 198 210
202 266 277 232 200 158 156 181 176 155 230 286 291 287 304 351 66 126 143 152 180 188 182 180 180 179 178 178 181 180 178 179 181 181 181 179 179 176 181 185 181 189 200 199
172 257 289 278 46 257 162 159 97 109 158 273 291 268 242 243 218 190 182 187 200 191 181 182 182 185 185 184 183 178 178 183 185 183 184 182 185 188 184 177 183 193 200 196
161 181 298 342 205 212 166 138 125 136 162 167 254 270 239 214 209 197 205 201 196 185 181 183 187 189 184 178 178 180 184 184 183 186 185 182 187 188 182 183 194 196 197 192
154 131 246 265 267 227 179 184 149 155 234 183 195 265 276 214 207 193 201 205 203 192 180 179 178 175 176 181 185 188 189 189 193 188 180 184 185 183 184 192 200 194 194 192
132 113 46 339 338 2 19 225 165 142 136 175 194 263 301 243 225 206 198 206 197 181 170 164 161 168 178 187 189 190 191 195 192 183 180 181 184 188 194 198 198 190 186 184
118 126 165 198 221 238 267 280 208 135 169 225 227 251 285 277 251 248 232 206 180 172 170 167 172 182 186 187 186 188 197 195 188 182 182 186 193 195 197 196 191 190 184 179
104 143 200 227 242 238 243 258 247 208 204 210 241 244 253 237 222 222 208 165 152 155 162 173 181 189 187 183 188 190 197 197 187 182 189 197 197 190 186 187 187 186 184 189
93 156 191 291 283 303 289 275 256 241 230 229 246 259 259 248 213 191 170 152 159 172 179 183 184 183 188 189 190 192 201 196 177 182 192 192 183 177 180 183 180 180 187 191
138 135 130 266 297 348 283 256 237 237 240 217 235 258 281 209 185 197 187 166 174 185 185 184 189 195 200 200 190 187 195 180 169 179 187 184 177 177 183 180 172 183 190 182
164 147 152 208 351 248 249 261 230 198 315 286 264 291 282 222 225 183 161 165 176 181 187 192 191 195 198 188 173 162 143 154 162 168 180 179 176 184 184 176 184 194 185 180
170 156 148 150 213 268 292 298 292 220 277 326 320 337 352 8 35 8 342 190 185 187 191 196 193 185 176 171 165 141 139 143 154 175 186 185 176 178 180 188 202 201 183 185
100 126 138 149 187 237 260 292 304 130 269 315 351 91 41 52 51 276 290 280 204 197 190 177 162 142 151 178 152 141 159 161 185 201 201 195 180 177 185 197 203 199 185 194
60 79 156 178 208 251 265 294 23 112 260 295 297 215 171 188 217 239 265 272 197 194 222 170 143 155 187 181 151 155 172 199 209 199 186 185 188 188 193 195 195 186 178 174
185 180 197 172 201 248 294 66 134 228 255 297 312 258 211 249 283 282 260 240 204 238 233 181 161 189 200 176 160 174 204 216 195 172 177 195 203 200 188 181 192 183 171 170
200 191 189 192 211 234 214 176 221 192 228 297 319 304 240 258 267 266 261 238 232 212 214 205 182 190 219 200 178 190 216 201 165 153 174 198 209 208 185 175 182 180 173 176
291 295 165 241 260 270 279 273 320 305 238 240 225 243 181 247 248 255 256 264 270 265 245 217 182 196 230 229 212 207 203 179 158 164 184 195 181 198 200 179 181 184 187 188
247 272 239 253 276 302 295 298 289 284 277 276 271 236 203 206 251 251 255 255 251 256 265 233 213 216 231 232 227 210 191 171 171 179 188 192 193 189 197 200 204 203 211 202
218 197 200 237 246 247 268 272 277 271 257 247 255 268 260 216 223 235 245 251 250 250 254 249 242 234 237 234 231 216 200 183 178 184 192 192 190 195 191 186 290 286 237 230